TimeMDT,TemperatureF,Dew PointF,Humidity,Sea Level PressureIn,VisibilityMPH,Wind Direction,Wind SpeedMPH,Gust SpeedMPH,PrecipitationIn,Events,Conditions,WindDirDegrees,DateUTC
12:53 AM,46.9,26.1,44,29.82,10.0,WNW,3.5,-,N/A,,Mostly Cloudy,300,2013-05-20 06:53:00
1:53 AM,46.9,26.1,44,29.80,10.0,West,4.6,-,N/A,,Overcast,260,2013-05-20 07:53:00
2:53 AM,46.0,30.9,56,29.83,10.0,South,4.6,-,0.00,,Overcast,190,2013-05-20 08:53:00
3:53 AM,46.0,28.9,51,29.83,10.0,Calm,Calm,-,N/A,,Overcast,0,2013-05-20 09:53:00
6:53 AM,41.0,28.0,60,29.89,10.0,North,5.8,-,N/A,,Clear,360,2013-05-20 12:53:00
7:53 AM,46.0,30.0,54,29.89,10.0,SE,3.5,-,N/A,,Clear,140,2013-05-20 13:53:00
8:53 AM,51.1,30.9,46,29.90,10.0,Calm,Calm,-,N/A,,Overcast,0,2013-05-20 14:53:00
9:53 AM,55.0,28.9,37,29.88,10.0,Calm,Calm,-,N/A,,Clear,0,2013-05-20 15:53:00
10:53 AM,55.9,26.1,32,29.88,10.0,Calm,Calm,-,N/A,,Clear,0,2013-05-20 16:53:00
12:53 PM,64.0,26.1,24,29.82,10.0,SW,10.4,19.6,N/A,,Clear,230,2013-05-20 18:53:00
1:53 PM,63.0,28.0,27,29.84,10.0,West,12.7,23.0,N/A,,Partly Cloudy,270,2013-05-20 19:53:00
2:53 PM,57.0,27.0,32,29.88,10.0,East,6.9,18.4,0.00,Rain,Light Rain,90,2013-05-20 20:53:00
3:05 PM,55.4,30.2,38,30.02,10.0,WSW,6.9,-,0.00,Rain-Thunderstorm,Light Rain,240,2013-05-20 21:05:00
3:20 PM,53.6,37.4,54,30.02,10.0,WSW,9.2,-,0.00,Rain,Light Rain,240,2013-05-20 21:20:00
3:53 PM,51.1,39.9,66,29.91,10.0,WSW,9.2,-,0.00,,Scattered Clouds,240,2013-05-20 21:53:00
4:53 PM,59.0,34.0,39,29.91,10.0,NW,18.4,28.8,N/A,,Scattered Clouds,320,2013-05-20 22:53:00
5:53 PM,53.1,32.0,45,29.94,10.0,Variable,5.8,-,0.00,Rain,Light Rain,0,2013-05-20 23:53:00
6:53 PM,54.0,32.0,43,29.95,10.0,NW,6.9,-,N/A,,Scattered Clouds,320,2013-05-21 00:53:00
8:53 PM,51.1,33.1,50,29.94,10.0,NW,4.6,-,N/A,,Scattered Clouds,320,2013-05-21 02:53:00
9:53 PM,46.9,33.1,59,29.97,10.0,NE,6.9,-,N/A,,Clear,40,2013-05-21 03:53:00
10:53 PM,46.9,34.0,61,29.96,10.0,Calm,Calm,-,N/A,,Clear,0,2013-05-21 04:53:00
11:53 PM,44.1,34.0,68,29.96,10.0,Calm,Calm,-,N/A,,Clear,0,2013-05-21 05:53:00